Theta_e
345 347 345 342 345 349 350 351 352 357 356 348 349 353 356 362 363 364 361 362 362 361 357 352 348 351 356 353 354 354 353 353 352 348 345 350 351 350 351 351 352 351 351 351 350 351 352 354 355 354 352 349 347 346 344 344 344 343 341 342 347 351 350 350 349 348 349 350 351 351 351 352 351 352 351 351 352 351 351 351 351 351 351 352 352 351 352 352 352 351 351 352 352 352 352 350 349
344 345 343 344 347 351 353 353 353 353 352 346 348 355 358 364 364 364 364 363 364 359 355 352 351 354 354 352 351 351 352 351 349 350 349 350 351 350 350 351 352 351 351 350 351 351 351 353 354 354 351 347 345 343 344 344 343 342 343 345 350 351 350 350 349 350 350 350 350 350 351 352 353 352 352 352 352 352 352 352 351 351 352 351 350 350 351 350 350 351 352 352 352 352 352 350 348
342 343 344 347 350 351 354 355 353 348 347 344 347 358 361 365 366 364 362 361 360 356 354 353 354 355 353 354 354 353 353 348 347 348 349 351 351 351 351 352 352 352 352 351 352 352 352 353 352 353 351 348 346 346 346 344 342 344 346 348 351 350 349 350 350 350 350 349 350 350 351 352 353 352 352 352 352 352 351 351 351 351 351 350 349 349 351 350 349 351 351 350 350 351 351 350 350
341 344 347 350 352 353 356 357 355 348 344 343 346 359 362 364 366 363 360 359 357 354 354 355 356 355 355 358 353 353 352 348 348 349 350 352 352 351 351 352 352 352 352 352 351 351 352 351 350 352 351 349 348 346 347 344 343 346 348 350 351 349 350 350 351 350 350 350 350 352 352 353 353 352 352 352 352 351 350 350 350 350 350 350 349 349 350 350 349 350 350 350 350 350 350 350 350
342 346 348 351 354 355 358 359 359 350 346 348 349 359 363 363 365 361 359 357 355 355 356 356 357 354 354 354 352 353 351 349 351 350 351 351 352 351 352 352 352 352 352 352 351 351 351 350 350 351 350 349 346 343 345 344 344 348 348 349 350 349 350 351 351 351 352 351 352 353 353 352 352 351 350 351 351 350 350 351 350 350 350 349 348 349 350 349 348 349 350 349 350 349 348 349 349
345 349 349 350 354 354 357 354 353 351 353 358 355 360 363 361 363 361 360 358 356 356 356 357 356 354 353 351 350 351 349 349 351 350 351 352 351 351 352 352 352 353 353 352 352 351 351 351 351 350 348 345 341 339 342 344 345 348 348 349 350 350 350 350 351 352 352 353 353 353 353 352 350 349 349 350 351 350 351 351 350 350 350 349 349 350 350 348 347 349 351 350 349 348 348 348 348
349 350 351 353 354 355 357 352 350 353 357 361 358 361 362 359 361 360 360 359 358 356 356 356 352 355 355 351 350 351 349 350 350 350 352 351 351 350 351 352 353 353 353 353 352 350 351 352 350 348 344 338 337 338 342 345 347 348 348 349 350 352 351 351 352 352 353 353 353 352 353 352 348 347 349 350 350 350 351 350 350 351 350 350 351 351 351 349 347 349 350 350 349 347 348 347 348
350 352 352 355 359 357 358 352 353 357 357 360 359 360 361 360 360 360 361 359 360 358 356 354 352 357 355 351 353 353 351 351 351 351 352 352 351 351 351 352 353 353 353 354 352 348 348 349 348 344 337 336 340 342 345 347 348 349 349 350 351 352 352 352 352 353 353 353 352 352 352 351 348 347 349 349 349 349 350 350 349 350 351 350 350 351 351 350 349 349 350 349 348 348 348 347 348
350 353 354 356 360 357 354 353 355 360 360 359 358 360 361 360 360 359 361 360 359 357 356 353 351 358 356 353 355 353 351 352 351 352 352 352 352 351 352 352 352 353 353 353 352 348 348 347 345 341 337 341 345 345 347 348 349 349 349 350 351 352 352 351 351 353 354 353 352 351 352 351 348 348 349 350 349 350 349 349 350 350 350 350 350 350 350 350 350 349 349 349 349 349 348 347 348
353 354 355 358 357 353 349 351 356 361 362 359 358 361 361 359 360 360 360 360 358 357 356 352 352 357 355 355 356 352 352 352 351 352 351 351 352 352 352 353 353 353 352 352 352 350 348 346 344 342 342 346 347 348 348 349 349 349 349 350 351 352 352 351 352 353 353 353 352 351 352 351 349 349 350 350 351 351 350 350 351 351 350 350 350 350 349 349 349 349 349 349 349 349 349 349 349
356 354 356 357 353 348 346 350 356 361 361 360 361 361 361 359 360 360 360 360 357 357 354 352 355 355 354 356 355 352 352 351 351 352 351 351 351 352 352 352 353 352 351 351 351 350 348 346 344 342 345 347 348 348 349 349 350 349 350 351 351 352 352 352 352 353 352 353 352 352 352 351 351 351 351 351 350 350 349 350 351 350 350 350 350 349 349 349 349 348 348 349 349 349 349 349 349
358 358 359 358 351 349 350 351 356 363 362 363 363 360 360 360 361 360 360 359 357 356 354 354 355 352 354 357 355 352 351 351 351 352 351 352 351 352 352 352 352 353 352 350 350 350 350 348 345 343 346 348 348 349 349 350 350 351 351 351 351 351 351 352 352 351 352 352 352 352 352 352 352 351 350 349 350 349 349 349 349 349 350 350 349 349 349 349 349 349 348 348 348 349 349 349 348
358 358 359 357 352 353 355 354 360 364 364 365 363 360 359 360 361 360 360 359 358 358 355 354 352 351 356 356 353 351 351 351 351 351 351 351 351 351 352 352 352 353 352 350 351 352 351 352 349 347 346 348 349 350 350 351 352 352 352 352 351 351 351 351 350 351 352 352 351 351 352 351 351 352 351 350 349 348 349 349 349 350 350 350 348 349 350 350 349 349 349 348 348 348 348 349 349
355 355 356 357 355 356 356 355 360 359 360 365 362 359 360 360 361 359 359 359 360 359 355 352 350 353 356 355 354 350 349 351 351 352 351 352 351 352 352 352 353 352 351 351 352 352 352 353 351 349 347 348 350 350 352 353 353 353 353 352 351 350 351 350 350 350 351 352 351 351 351 350 351 351 351 351 349 347 348 349 351 351 350 351 349 348 349 350 349 349 350 349 348 348 349 349 349
354 353 357 359 355 355 355 356 359 355 357 364 361 359 361 360 360 359 359 360 360 356 352 352 350 355 355 354 354 349 350 351 351 351 351 352 351 351 352 352 352 352 352 352 353 352 353 353 350 348 348 350 351 352 353 354 353 353 352 351 351 351 351 350 349 350 351 351 350 350 351 350 352 351 350 350 349 349 349 350 351 351 350 349 349 348 348 349 350 350 350 350 349 349 350 349 349
352 354 359 359 353 350 351 357 358 354 358 364 361 359 361 360 360 360 360 358 357 353 353 353 350 354 354 351 351 349 351 351 351 351 351 352 351 352 352 352 352 352 352 352 353 353 353 352 349 347 348 352 352 352 353 353 353 352 351 350 352 352 351 351 350 351 352 351 351 350 350 350 350 349 349 349 348 349 350 350 350 349 348 347 347 347 347 347 349 349 350 350 350 350 349 348 348
349 354 359 356 352 349 350 356 355 353 359 364 361 361 362 362 360 359 358 356 356 355 355 354 351 352 350 350 351 350 351 350 350 351 351 351 350 351 351 352 352 352 352 352 353 353 353 351 349 348 348 351 351 352 351 353 354 353 352 350 351 352 352 352 351 352 352 352 351 349 348 348 349 348 348 348 348 349 350 350 349 348 347 345 345 346 347 347 347 348 349 350 349 348 348 347 347
349 356 357 351 352 351 350 355 353 356 363 363 361 361 362 362 361 359 357 357 357 356 355 354 352 351 351 352 351 350 351 350 351 350 351 350 350 350 350 351 351 352 352 352 352 352 353 351 350 349 349 350 351 352 352 353 354 352 352 351 351 352 352 352 352 352 352 350 349 348 347 348 348 348 348 348 348 349 350 350 349 348 347 346 345 346 347 348 348 348 349 349 349 349 348 348 349
352 356 356 353 355 353 350 352 353 358 362 362 361 360 361 362 361 359 360 359 356 356 356 354 352 351 351 352 351 351 350 350 350 350 350 350 350 351 350 351 351 352 352 352 352 351 352 351 350 351 349 350 352 352 352 352 352 352 352 351 351 352 351 350 350 351 351 349 348 348 348 348 348 348 348 348 348 349 350 349 349 349 348 347 346 347 347 348 349 348 348 348 349 350 349 350 351
352 352 354 354 353 352 351 351 352 357 361 362 361 360 361 362 361 360 360 359 357 357 355 354 353 352 350 350 351 350 350 351 351 351 351 350 351 350 350 351 350 352 352 351 352 351 352 351 351 351 348 349 352 352 352 351 352 353 352 351 351 352 351 350 350 350 350 348 348 348 348 349 349 349 348 347 347 348 349 348 348 348 348 347 345 347 347 347 348 347 347 348 349 350 350 350 350
350 351 354 353 350 352 351 349 352 357 360 362 360 361 362 361 360 360 360 358 359 357 354 353 352 352 350 348 350 350 350 350 351 351 350 351 351 351 350 351 350 351 352 351 352 352 352 352 351 350 347 349 352 352 352 352 352 353 351 352 351 351 350 350 350 350 350 348 348 348 348 349 349 349 348 348 347 348 349 348 348 347 347 346 344 347 348 347 350 350 349 349 349 350 350 350 350
347 350 352 350 349 350 347 346 353 359 359 361 361 362 363 361 360 360 360 361 360 356 353 351 350 349 349 348 349 350 351 351 351 350 350 351 350 351 351 350 351 351 351 351 351 352 352 351 352 350 347 349 351 352 352 352 351 352 352 352 352 351 351 350 350 349 348 348 348 349 348 349 348 348 348 349 348 348 348 348 348 347 347 345 345 347 347 347 349 350 350 350 350 351 351 350 350
345 346 345 344 345 345 344 344 353 359 359 362 361 361 362 360 361 360 358 361 359 353 352 350 350 350 350 349 349 349 349 351 351 350 350 350 350 350 350 350 350 350 351 350 351 352 352 352 351 349 349 350 351 352 353 352 352 352 351 351 352 352 350 350 350 348 348 348 348 348 348 349 349 348 348 348 347 347 347 346 346 346 348 347 346 347 347 347 349 349 349 349 350 351 351 350 350
343 345 343 342 341 341 341 342 352 358 358 362 359 359 361 360 361 360 359 361 356 352 352 351 352 352 351 349 348 348 349 351 350 350 350 350 350 350 350 350 349 350 350 350 351 351 351 350 350 349 350 351 350 351 352 352 353 352 351 351 352 351 351 351 350 348 348 348 348 347 348 349 349 349 348 347 347 346 344 345 345 346 349 349 348 349 349 349 349 349 349 349 350 351 350 349 349
341 344 342 341 340 340 339 341 352 357 357 359 358 359 361 359 360 360 360 360 354 352 353 351 352 350 349 347 346 348 349 351 351 350 350 350 350 350 350 350 349 350 350 350 350 351 351 350 350 351 352 351 350 351 351 352 352 351 351 351 351 350 350 351 349 349 348 348 348 347 348 350 350 350 348 347 346 345 344 345 346 347 349 349 349 350 348 349 349 349 349 350 350 351 351 350 349
340 341 341 340 338 337 335 339 352 357 357 358 360 361 360 358 359 361 359 357 353 351 352 350 350 348 348 347 346 348 348 350 350 349 350 349 349 349 349 349 349 349 349 350 349 350 351 349 350 352 352 352 350 351 351 352 352 351 352 351 350 350 350 350 349 349 349 349 348 347 349 348 349 350 348 347 346 345 345 347 347 348 348 347 350 349 347 348 349 349 349 351 352 351 351 350 349
337 337 336 335 333 333 331 337 352 357 357 358 360 361 359 357 359 362 359 354 351 351 352 350 349 349 348 347 347 349 349 349 350 349 349 349 349 349 349 349 349 349 348 349 349 350 350 349 350 352 352 352 351 351 351 351 351 351 352 351 350 350 350 350 350 350 350 350 349 348 348 346 345 347 346 345 346 347 348 349 348 348 348 347 348 349 348 347 348 348 348 350 350 350 349 349 349
331 330 331 330 329 340 341 345 355 357 358 358 359 361 359 359 359 362 359 353 351 352 353 351 350 350 348 347 347 349 350 350 350 350 350 349 349 349 350 349 349 349 349 349 350 350 350 350 351 352 352 352 352 351 351 351 351 350 351 351 350 350 349 350 350 350 349 349 349 349 349 346 345 345 344 345 346 347 349 350 349 348 349 348 347 347 348 348 347 348 348 348 348 348 350 349 348
329 327 330 331 329 347 355 354 356 357 358 357 357 358 359 361 360 359 357 353 351 352 352 352 351 350 348 348 347 348 349 349 350 350 350 349 349 350 350 350 350 350 349 350 350 350 350 351 351 352 352 352 352 351 351 351 352 351 351 351 351 351 349 349 350 349 348 349 348 348 349 348 347 346 347 347 347 348 349 350 350 349 349 349 348 347 348 348 349 350 349 350 349 350 351 350 349
330 327 326 331 326 342 358 357 356 358 357 356 355 349 352 363 360 356 356 353 352 352 353 352 350 350 349 348 347 347 348 350 349 349 350 350 350 350 350 350 350 350 350 350 350 351 351 351 351 351 351 352 351 351 351 351 352 351 351 351 351 351 350 349 349 349 348 348 348 347 347 348 349 348 348 348 348 349 348 348 349 349 348 349 349 348 349 349 349 351 350 351 351 350 351 350 350
328 327 324 328 322 333 358 358 356 360 355 357 356 343 346 360 358 356 356 353 353 353 353 352 350 350 348 348 348 346 347 349 350 350 351 351 349 349 349 350 349 350 351 351 350 351 351 351 351 351 351 351 351 351 351 351 352 352 352 351 351 351 349 349 349 350 349 348 348 348 348 348 350 349 349 349 348 348 348 348 348 348 348 349 350 348 349 351 351 351 350 351 352 351 350 349 349
326 326 324 325 318 331 360 358 354 361 356 356 356 344 346 354 355 356 355 353 354 353 353 352 351 350 349 348 347 346 346 348 351 351 351 350 350 349 349 349 349 350 351 351 351 351 352 352 351 351 351 351 351 351 351 351 351 352 351 351 351 351 350 348 348 350 350 350 349 349 348 348 350 349 349 349 348 347 348 349 348 347 348 348 350 349 351 353 352 351 350 350 352 352 351 349 348
326 325 322 320 316 328 351 357 355 358 357 358 355 350 350 353 354 356 354 353 354 354 354 353 351 351 349 349 348 347 346 348 349 350 350 350 350 349 349 349 349 350 350 351 350 350 352 352 351 351 351 351 351 351 351 351 351 351 350 350 350 350 349 349 348 348 350 350 350 349 348 348 349 349 349 349 348 348 348 348 348 348 348 349 349 350 352 352 351 353 351 349 350 352 351 349 348
323 324 323 317 319 328 337 350 358 354 358 361 358 358 355 353 355 356 354 354 354 355 354 353 352 351 351 349 348 347 348 347 348 350 350 349 349 348 348 349 349 350 350 350 350 349 351 351 350 350 351 351 351 351 350 350 349 349 348 349 348 348 349 351 350 348 350 351 351 349 348 348 348 348 348 348 348 349 348 348 349 348 348 349 349 351 352 351 351 353 353 350 348 350 352 350 348
322 322 322 316 321 331 330 342 357 356 357 360 359 360 358 356 357 356 355 354 354 355 354 353 352 351 352 350 348 348 349 348 349 350 350 349 349 348 348 348 348 349 350 350 350 349 350 351 349 348 349 350 349 350 349 349 349 348 348 349 348 347 349 350 350 348 349 351 351 349 348 348 348 348 348 348 349 348 349 349 349 349 350 350 350 351 353 352 352 353 353 353 349 349 350 350 348
326 322 322 317 318 326 325 330 345 357 359 359 360 358 358 357 356 357 356 354 356 355 355 353 352 352 352 351 349 349 349 348 349 350 350 350 349 349 348 347 348 349 349 350 351 350 350 350 349 348 347 348 349 350 350 350 350 350 350 351 350 350 350 350 349 349 349 350 349 348 347 348 349 349 348 348 349 349 349 350 350 350 351 351 351 352 354 353 353 353 353 353 353 350 348 347 347
326 323 322 321 318 321 324 323 332 353 357 354 360 358 358 358 355 357 355 355 356 355 356 355 353 353 352 352 351 350 349 349 350 350 349 349 349 349 348 348 347 349 350 350 351 351 350 349 348 348 347 347 348 350 351 350 351 351 351 352 352 352 352 350 350 350 350 350 348 347 348 348 349 349 349 349 350 351 350 350 350 350 351 351 352 353 353 353 353 352 352 352 352 352 349 346 346
326 325 323 322 320 319 325 323 324 345 350 345 358 358 356 358 355 356 355 356 357 355 356 356 354 354 352 353 352 351 350 349 349 350 349 349 349 349 348 349 348 349 350 351 351 351 351 350 348 348 347 346 346 348 350 351 352 351 352 352 352 353 352 351 352 351 350 351 348 347 348 348 349 350 350 350 351 351 350 350 350 350 350 350 350 350 350 352 353 352 353 354 352 350 349 347 345
326 326 324 320 322 320 323 323 322 338 345 340 350 350 347 353 354 355 356 356 357 356 356 356 355 355 353 353 353 352 351 349 349 348 350 350 349 349 349 349 349 349 351 350 351 352 352 352 351 349 346 345 346 346 347 350 350 350 350 351 351 353 352 350 352 350 350 351 349 348 349 349 349 350 351 352 352 351 350 351 350 351 351 350 350 350 349 351 351 351 353 355 353 350 348 345 344
325 326 323 320 322 319 317 320 325 337 342 338 341 339 336 343 347 351 354 354 356 355 354 355 355 354 353 352 352 353 351 350 349 348 349 349 349 350 349 349 350 350 351 351 351 352 352 353 352 349 346 345 345 344 345 348 348 346 347 347 347 350 350 347 348 348 349 350 350 349 349 349 349 349 351 352 353 352 351 351 351 351 352 351 350 350 350 351 351 351 352 354 353 350 348 346 345
325 325 324 323 324 322 319 321 324 329 334 338 337 326 327 339 342 344 349 353 355 355 355 355 355 354 354 352 351 352 352 351 350 348 349 350 349 350 349 350 350 350 351 351 351 352 353 353 352 349 347 347 346 344 345 348 348 348 350 350 350 351 350 349 349 351 351 350 351 351 349 349 350 350 351 352 353 353 351 352 351 351 351 352 351 351 352 351 350 351 352 353 353 351 349 348 347
324 325 326 326 326 326 324 323 323 319 320 332 333 318 321 341 349 348 349 352 355 356 357 357 355 355 353 353 352 351 351 351 350 349 349 349 350 349 349 349 349 350 351 352 352 352 352 353 351 351 350 350 348 346 347 348 349 351 353 354 353 353 354 353 352 353 353 351 352 352 349 349 350 350 352 352 352 352 352 352 351 351 351 351 351 352 352 350 350 351 351 353 354 350 350 349 347
323 324 326 326 327 326 324 324 321 315 315 328 334 320 317 331 346 353 353 353 355 355 356 357 356 355 354 353 352 351 350 350 350 349 349 350 350 350 350 349 349 350 350 351 352 351 352 352 351 351 351 351 351 350 349 349 350 351 352 354 354 355 355 354 351 351 352 350 350 351 348 349 351 352 352 352 352 352 352 353 352 352 351 350 351 352 353 353 352 353 352 353 353 349 350 352 350
324 325 324 325 326 325 326 323 320 318 318 324 334 330 319 323 340 355 357 355 357 358 357 356 355 356 354 353 352 351 350 350 349 349 348 349 351 350 350 349 349 349 350 350 351 351 352 351 350 350 351 351 351 351 351 350 350 350 351 353 354 354 354 353 350 349 351 349 349 350 348 349 352 354 354 352 352 351 351 352 352 352 351 350 351 352 355 355 354 352 351 351 352 349 349 352 353
326 324 323 324 325 325 326 324 320 321 318 316 327 333 322 324 341 353 355 354 353 354 354 354 355 354 354 354 351 352 350 350 350 349 349 350 351 351 349 349 349 348 349 350 351 351 352 351 350 351 351 351 351 351 351 351 350 349 350 352 353 353 353 352 349 348 350 349 349 349 348 349 351 354 354 352 351 350 350 351 351 352 352 350 352 354 356 354 353 353 352 353 353 352 350 350 353
325 321 321 322 323 324 324 323 319 318 317 314 322 329 321 325 340 346 348 349 347 348 348 348 352 353 354 354 352 351 350 351 350 348 350 351 350 351 350 349 349 349 349 350 350 351 352 352 351 350 351 351 351 351 351 351 351 350 351 351 352 352 352 351 350 349 349 349 349 349 348 348 349 351 352 353 351 348 348 349 350 352 353 352 354 355 355 353 353 354 353 354 355 355 353 351 354
323 321 323 322 322 323 323 323 318 316 317 314 319 329 321 323 338 344 345 346 344 345 345 344 348 351 353 353 351 352 351 350 350 349 351 352 351 351 350 350 349 349 349 350 350 351 351 352 352 351 351 351 351 352 351 352 351 351 351 350 350 351 351 351 350 350 349 349 350 350 349 348 348 350 351 352 351 349 347 347 349 350 353 354 355 355 355 356 357 356 356 355 355 355 355 354 355
322 323 323 321 320 321 320 319 318 316 316 313 319 329 327 330 341 345 344 344 341 342 344 342 343 346 352 353 352 352 351 350 350 349 350 351 351 351 350 350 349 349 349 349 350 350 351 351 352 352 351 351 351 351 352 352 352 353 351 350 350 350 350 350 351 350 350 349 349 349 348 347 349 349 350 352 352 350 347 346 347 349 352 354 355 355 356 356 357 358 356 355 355 355 355 354 356
323 322 320 318 318 319 318 317 317 316 315 315 318 324 331 338 344 345 343 342 340 340 340 340 340 341 345 349 351 352 351 350 350 350 350 350 352 352 351 351 350 350 349 350 349 349 351 351 352 352 352 351 351 351 352 352 352 352 352 351 351 350 350 350 350 350 350 349 350 349 348 348 348 348 349 350 350 349 347 346 346 346 349 353 354 355 355 355 356 357 356 356 356 355 354 355 356
322 320 317 317 317 319 320 318 318 317 314 316 317 320 331 340 342 343 341 339 338 338 337 338 339 339 340 344 348 351 351 350 351 351 350 350 352 353 351 351 351 350 349 349 350 350 351 352 351 352 351 350 350 351 352 351 352 352 351 351 351 350 350 350 351 350 350 350 349 349 347 348 347 346 346 346 347 348 348 346 346 345 347 351 353 353 355 355 355 356 355 356 356 355 355 355 356
321 322 320 318 316 318 318 317 316 316 314 314 314 318 331 339 341 342 340 336 336 336 336 338 338 338 339 339 341 345 347 349 351 351 350 351 353 352 351 352 351 350 350 349 349 350 350 352 351 351 352 351 350 351 351 351 351 351 350 351 351 350 350 350 350 349 349 349 349 349 348 347 347 346 346 345 345 347 348 347 346 346 346 349 352 353 354 355 355 355 355 354 356 356 355 354 355
319 320 320 317 317 318 317 316 316 315 314 314 317 324 334 337 338 339 338 337 336 335 335 337 336 337 337 338 338 338 340 343 346 350 351 352 353 353 352 352 351 351 350 349 350 350 350 351 351 350 351 350 350 350 350 350 351 351 351 350 350 350 350 350 350 350 349 349 349 349 347 346 346 346 345 345 345 347 347 348 346 346 346 347 350 352 353 355 354 354 355 354 355 356 355 355 355
318 317 316 316 318 320 317 316 317 315 313 316 323 330 335 335 334 337 339 338 336 335 335 335 335 336 336 336 337 336 336 337 340 345 349 352 354 353 352 352 351 351 350 349 350 350 350 350 351 351 351 351 350 350 351 350 350 351 350 350 350 350 350 350 351 350 350 349 349 349 348 347 346 345 345 345 345 346 347 348 348 348 347 346 349 352 354 354 354 355 355 354 355 356 355 355 356
316 316 316 317 317 319 319 317 317 314 314 321 328 328 328 330 334 337 341 340 336 336 335 334 334 334 335 335 335 335 335 336 337 340 346 350 353 353 353 352 351 350 350 349 350 349 349 349 350 351 352 352 351 351 351 351 351 350 350 349 349 349 349 350 350 351 351 350 349 349 348 347 345 345 345 344 345 346 347 348 349 349 348 347 349 352 353 353 353 354 355 353 354 355 355 355 355
314 314 315 316 316 318 319 318 317 314 317 326 330 325 324 328 334 339 342 341 337 335 335 334 333 332 332 333 333 333 334 334 336 338 343 349 351 353 353 352 352 350 349 350 349 348 349 348 350 351 352 351 351 351 352 351 351 351 350 350 348 348 349 350 350 351 351 350 350 349 348 347 346 345 344 344 345 346 347 348 348 349 348 348 349 351 352 353 353 354 355 355 354 352 352 355 355
313 313 314 315 316 317 317 317 316 314 321 327 328 326 325 329 338 343 343 341 337 335 334 333 331 331 330 330 330 331 332 333 334 335 340 346 350 352 352 352 352 350 350 350 349 349 348 348 350 350 351 351 351 351 352 352 351 351 350 349 349 349 348 349 350 350 350 350 350 349 348 347 345 345 344 344 344 345 347 347 347 347 348 348 348 349 352 353 353 353 355 356 356 352 351 354 356
313 314 314 314 315 316 316 317 316 316 321 325 326 327 326 331 341 345 343 340 335 333 333 332 331 329 328 328 328 329 330 331 332 334 336 342 347 350 350 352 352 351 350 349 348 348 347 347 348 350 351 352 352 351 352 352 352 351 351 350 349 349 348 349 350 349 350 349 349 349 348 347 346 344 344 344 344 344 346 345 346 346 347 347 347 347 349 351 353 353 352 353 354 353 352 355 356
312 313 312 312 313 315 315 316 316 317 321 322 324 325 327 332 339 341 340 336 333 331 330 330 329 329 328 327 327 327 328 328 330 331 332 336 341 344 345 349 351 351 351 349 348 347 347 347 347 349 350 351 351 351 352 352 351 351 351 350 350 350 349 349 350 350 349 348 349 348 347 347 345 344 344 343 343 343 344 345 345 344 345 345 345 346 347 349 351 352 353 354 354 352 353 355 356
Wind_Speed
9 10 10 11 9 5 3 2 1 1 1 1 1 1 1 1 1 3 5 4 4 3 2 7 10 7 4 5 8 8 7 3 1 0 4 6 12 16 14 15 17 14 13 13 15 18 18 19 17 16 17 17 18 18 17 16 15 15 14 15 16 16 15 15 15 15 14 13 13 12 12 12 12 12 12 13 13 13 12 13 13 13 14 13 11 11 11 10 11 11 11 10 11 15 15 13 12
11 11 11 10 6 2 1 1 1 1 1 1 0 0 2 2 1 3 6 6 4 5 5 8 9 7 7 9 10 8 8 6 2 3 6 13 17 13 15 17 16 15 14 13 13 14 16 19 18 17 17 17 17 17 16 15 15 14 15 16 16 15 15 14 14 14 13 13 13 13 13 12 12 13 13 13 14 14 13 13 14 13 14 14 12 12 12 11 11 10 11 10 11 14 15 13 11
13 12 11 7 2 2 0 1 1 0 2 1 1 1 2 2 2 5 7 7 8 9 9 9 9 6 6 8 5 4 6 4 7 8 8 16 15 12 17 16 16 16 15 14 14 14 14 17 20 17 17 16 16 16 15 15 15 15 15 16 15 15 14 14 13 13 13 13 13 13 12 12 12 13 14 14 15 14 13 13 14 14 14 14 14 13 12 12 11 11 12 10 11 13 14 13 11
15 14 8 2 2 1 1 0 0 1 1 1 1 1 2 2 4 6 7 9 11 11 9 8 6 4 2 7 4 5 7 6 9 10 10 14 14 16 18 17 16 15 15 14 15 17 16 18 20 17 16 16 16 16 15 15 15 15 15 15 15 14 13 13 13 13 13 13 13 12 12 12 13 13 14 14 15 15 13 12 14 15 13 14 15 13 12 11 12 12 12 12 12 13 13 13 11
16 11 3 1 1 0 1 0 0 2 1 1 1 1 3 3 7 7 8 10 10 8 7 5 5 3 5 6 2 3 7 9 10 12 13 12 15 20 19 19 18 16 16 15 15 16 18 20 19 17 16 16 16 15 15 15 15 15 15 15 14 13 12 12 12 13 13 12 12 12 12 13 15 13 12 13 14 14 14 13 14 14 12 13 15 14 11 11 12 13 12 12 13 14 14 13 10
13 6 0 1 0 0 1 1 1 3 2 1 2 1 4 3 7 9 10 9 7 5 5 4 7 7 6 6 5 5 7 9 12 13 14 16 20 22 20 19 18 17 16 15 15 15 18 20 18 16 15 15 15 15 15 15 15 15 15 14 13 12 12 12 12 12 12 11 11 12 14 15 15 11 10 13 14 14 14 14 14 13 13 14 14 13 11 11 12 12 12 12 12 13 15 15 11
7 3 0 0 1 1 1 2 2 3 1 1 2 1 3 5 8 11 12 10 7 5 3 5 9 9 6 4 6 7 5 9 13 14 17 20 23 24 22 18 16 16 16 15 15 17 19 18 16 15 14 14 14 15 15 15 15 14 14 13 12 12 12 11 11 12 12 11 11 12 15 17 13 10 11 13 13 13 13 14 14 13 13 14 13 13 12 12 12 13 13 13 13 12 14 15 12
3 1 0 1 0 0 2 3 3 2 1 1 1 1 2 7 9 10 13 10 8 7 6 8 8 7 6 3 5 6 7 11 14 17 22 23 23 23 20 16 15 14 14 13 13 17 18 15 14 12 13 14 14 14 15 15 14 13 13 12 12 11 11 11 11 12 11 11 11 13 16 16 11 11 13 13 13 13 13 14 15 13 14 14 13 13 13 14 14 14 14 14 14 14 13 14 13
1 1 1 1 1 1 2 3 3 2 1 0 1 2 4 8 8 9 11 8 8 9 8 8 4 5 7 6 7 7 9 14 18 23 25 24 23 22 19 17 16 15 13 12 13 16 15 13 13 12 14 14 14 14 15 15 13 13 12 12 12 11 11 11 11 11 11 11 11 13 15 14 12 12 13 13 13 13 14 15 15 14 14 14 14 13 14 16 16 15 15 15 15 15 14 14 13
1 1 0 1 1 2 3 3 3 2 1 1 1 2 7 8 7 9 10 10 10 9 7 5 5 8 10 9 7 6 11 18 23 24 24 25 24 22 20 18 18 17 17 15 15 15 15 14 13 14 15 14 14 14 14 14 13 12 12 12 11 11 10 11 11 11 11 11 11 13 15 14 13 13 12 12 13 13 13 14 14 14 13 14 14 14 15 16 16 15 16 15 15 15 15 14 13
1 1 0 1 1 3 3 4 4 2 1 1 2 3 6 7 7 8 10 12 10 9 9 7 9 12 11 7 5 8 15 20 23 24 24 25 23 21 20 19 18 18 19 18 16 17 16 15 14 15 14 14 14 14 14 13 12 12 11 11 11 10 10 10 10 10 11 11 11 12 14 14 13 13 13 12 13 13 13 13 13 13 13 14 14 14 15 16 16 15 16 16 15 15 15 14 14
1 1 1 1 2 2 4 5 5 2 1 1 3 3 3 5 7 9 11 12 10 10 7 5 9 11 10 6 4 11 18 21 22 23 24 24 23 21 19 18 18 18 18 18 17 17 17 16 15 14 14 14 14 14 13 12 12 11 11 11 10 10 10 10 9 10 11 11 11 11 13 14 14 14 14 13 13 13 13 14 14 14 14 14 14 15 15 16 15 15 16 15 15 15 15 14 14
1 1 1 1 2 3 5 5 4 2 2 2 3 4 4 5 7 9 11 11 10 9 6 6 10 8 8 7 7 12 17 21 21 22 23 23 22 20 18 18 17 17 18 17 16 16 17 16 15 14 13 13 13 13 12 12 12 10 10 10 10 10 10 10 10 10 11 11 11 11 12 13 13 14 14 14 13 13 13 14 14 14 14 14 14 14 14 15 15 15 15 14 15 16 15 14 14
1 1 1 2 2 3 4 3 3 2 3 3 4 5 4 4 5 7 10 12 7 5 7 9 11 9 8 8 7 9 15 21 22 22 22 20 20 19 18 18 18 18 17 17 16 17 16 15 14 14 13 13 12 12 12 11 11 10 10 9 9 10 10 10 10 11 10 11 11 12 12 12 13 13 14 14 13 13 13 14 14 14 14 13 14 13 14 14 14 15 14 15 16 16 14 13 14
1 1 2 2 3 2 1 1 3 2 3 4 4 5 5 4 4 6 7 9 6 5 8 9 6 5 9 10 8 11 18 25 23 22 21 19 20 20 19 18 18 18 17 16 15 16 15 15 14 13 13 12 12 12 11 10 10 10 9 9 9 9 10 10 10 10 10 11 12 12 12 12 13 13 14 14 13 13 13 13 13 14 14 13 13 12 13 13 14 15 15 16 17 15 13 14 14
2 2 2 1 2 2 1 2 3 2 3 6 6 5 7 5 3 5 3 5 8 7 5 6 3 1 9 11 12 19 24 26 24 22 21 20 20 19 18 17 17 17 16 15 14 14 14 14 14 13 13 11 11 11 11 11 10 9 9 9 9 9 10 10 10 10 11 11 11 12 12 12 12 13 14 13 13 12 12 12 12 14 14 13 13 12 12 12 13 15 16 16 16 15 15 15 15
1 1 2 1 1 2 3 4 5 3 3 7 7 5 8 7 4 4 3 7 11 8 4 5 2 1 9 11 18 26 26 26 24 23 22 20 19 18 17 16 17 16 15 14 13 13 13 14 13 12 12 10 11 10 10 11 10 9 10 9 9 9 9 10 10 10 11 11 11 11 12 12 13 13 13 13 12 12 12 12 12 14 14 13 12 11 11 12 13 15 16 16 16 15 16 16 16
2 1 2 1 1 1 3 5 5 2 2 8 9 6 7 9 7 5 7 9 10 9 8 8 8 8 13 18 24 27 26 26 24 23 22 20 19 18 17 16 16 15 14 13 12 12 12 13 12 11 11 10 11 10 10 10 9 10 10 9 9 9 9 9 9 10 10 11 11 11 12 12 12 12 12 12 12 12 12 12 13 13 13 13 12 10 10 12 13 15 15 16 16 14 14 14 13
3 2 2 2 1 2 2 6 6 2 2 9 10 7 7 7 8 6 8 10 10 11 10 10 12 13 17 23 26 26 26 26 24 23 22 21 20 19 18 16 16 15 14 13 12 12 12 13 11 10 10 10 10 10 10 9 9 9 9 9 9 9 9 9 9 9 9 10 10 11 11 11 12 12 11 12 12 13 12 12 12 13 13 12 11 9 9 12 13 14 14 14 13 12 13 12 10
4 3 3 2 1 4 4 6 7 2 4 10 11 8 7 6 6 5 9 12 10 10 11 12 13 15 19 22 24 26 25 24 24 22 21 21 19 18 18 18 17 16 14 12 12 11 11 12 11 9 10 10 9 10 9 9 8 8 8 9 9 9 8 8 8 8 9 9 10 10 11 10 11 12 11 12 12 13 12 12 12 12 12 11 11 9 9 11 12 11 11 11 10 10 11 10 9
3 4 3 1 2 6 4 6 6 0 5 10 11 10 8 7 5 5 11 11 8 10 10 13 16 19 20 20 23 26 24 24 23 22 21 19 18 17 16 16 16 15 14 12 11 11 11 11 10 9 10 10 9 9 9 9 8 8 8 8 9 8 8 7 7 7 8 8 9 9 10 10 10 11 11 11 12 12 11 11 10 10 11 10 10 9 8 9 8 7 7 8 8 8 8 8 7
2 5 6 5 5 8 6 6 2 3 6 10 11 10 8 7 6 8 12 7 5 8 9 13 18 21 22 22 23 24 23 23 23 22 21 19 18 16 15 15 15 14 14 13 12 11 11 10 10 10 10 10 9 8 8 8 8 8 8 8 8 8 7 7 7 7 7 8 8 9 10 10 10 10 10 10 10 11 10 10 10 9 10 10 9 8 7 6 6 6 5 6 6 6 6 6 6
4 5 6 8 8 9 7 5 2 4 7 10 10 9 8 9 7 9 10 1 3 8 10 14 17 21 24 24 23 22 21 21 22 23 22 21 20 17 17 17 16 16 14 14 13 11 11 10 10 10 11 10 9 9 9 8 8 8 8 7 8 7 7 7 7 7 7 7 7 8 9 9 10 10 9 9 9 10 10 10 9 9 9 9 8 7 6 5 5 5 5 4 4 4 4 5 6
6 6 7 9 8 10 10 6 4 6 7 8 9 9 10 11 7 9 8 2 6 11 11 14 17 22 24 23 21 21 21 22 23 23 21 21 20 18 17 17 17 16 15 14 13 12 12 11 11 11 11 11 10 9 9 8 8 8 8 7 7 7 7 7 7 7 7 7 7 8 8 9 9 9 9 8 8 9 9 9 9 8 8 7 6 6 5 5 5 4 4 4 4 4 4 5 5
7 8 8 8 8 10 10 5 6 7 5 6 9 9 10 9 6 8 8 4 9 12 13 15 18 20 21 20 21 20 20 22 23 23 21 19 19 18 17 17 16 16 16 15 14 13 13 12 12 11 11 11 11 10 9 8 8 8 8 7 7 7 7 7 7 7 7 7 6 7 7 8 8 8 8 8 8 8 8 8 7 7 6 5 5 5 5 5 4 4 4 4 4 4 4 5 5
6 9 9 9 11 12 10 6 8 8 5 8 10 8 8 7 5 7 8 6 11 14 14 16 18 19 19 19 20 20 19 21 23 23 22 20 20 20 18 18 17 16 16 15 15 14 13 13 13 11 11 11 11 11 9 8 8 8 8 7 7 7 7 7 7 7 6 6 6 6 6 7 8 7 7 7 7 7 7 6 6 5 4 4 5 4 4 4 4 4 4 5 5 5 5 5 5
2 7 9 11 12 10 7 5 8 8 7 9 9 8 9 7 3 5 8 9 12 15 16 16 17 18 18 17 18 19 20 21 23 22 21 21 20 21 20 18 17 17 17 16 16 15 14 14 13 12 11 10 11 11 10 9 9 9 8 8 8 7 7 7 6 6 6 6 6 6 6 7 7 7 7 7 6 6 5 4 4 4 4 3 4 4 3 3 3 4 4 4 5 5 5 5 5
4 7 8 10 8 4 2 3 9 7 6 7 7 7 7 7 4 4 9 12 13 16 16 17 17 16 17 18 17 17 18 21 22 21 22 22 21 20 20 19 18 17 17 17 16 14 14 14 14 13 12 11 11 11 10 9 9 10 9 8 8 7 7 7 6 6 6 5 5 6 6 6 7 7 6 6 5 4 3 3 3 3 3 2 2 2 2 3 3 3 3 4 5 5 4 5 5
5 5 7 9 6 1 2 4 8 6 5 7 8 6 6 8 5 4 11 12 13 16 16 16 16 15 16 16 15 14 17 21 21 21 21 21 19 19 19 18 18 17 16 17 16 15 15 15 14 13 12 12 11 11 10 9 9 9 9 9 8 7 7 7 6 6 6 5 5 5 5 5 5 6 5 4 3 2 1 1 1 1 1 1 1 1 1 2 2 3 3 3 4 4 4 5 5
4 3 4 6 6 1 4 4 7 4 5 9 8 2 3 9 7 6 11 14 14 15 15 15 15 14 15 15 14 14 17 21 21 21 21 19 18 18 18 17 18 17 15 16 17 16 15 15 14 14 13 13 12 11 10 9 9 8 8 8 8 7 7 7 7 7 6 5 5 4 4 4 4 5 4 3 2 1 1 1 1 1 0 1 1 1 1 1 2 2 2 3 4 4 4 5 5
2 2 2 2 3 2 4 4 7 4 4 9 7 2 2 5 9 9 11 14 15 14 15 15 14 14 14 14 14 14 16 20 20 20 19 18 17 17 18 18 18 17 16 16 17 16 16 15 15 14 14 14 13 12 10 9 9 9 8 8 7 7 7 8 7 6 6 5 5 4 3 3 3 3 3 2 2 2 2 2 2 1 1 2 1 1 1 1 1 2 2 2 3 4 4 5 5
0 2 3 1 2 1 4 5 7 4 4 9 6 2 2 1 7 11 10 14 16 14 14 15 15 15 15 14 14 14 15 18 19 18 18 18 17 17 18 18 19 18 17 17 17 16 16 16 16 15 15 15 13 12 11 10 9 9 8 8 8 7 8 8 8 7 6 5 4 3 3 3 2 2 2 1 1 2 2 3 2 2 2 2 1 1 1 1 1 2 2 2 3 4 4 4 5
1 3 2 1 2 1 3 4 5 5 6 9 7 3 2 3 4 10 11 14 15 13 14 15 15 15 15 13 13 13 14 16 17 17 18 18 17 17 18 19 19 19 18 18 18 18 17 17 17 15 15 16 14 13 11 10 9 9 9 9 8 8 8 8 8 8 6 6 5 4 4 3 3 2 1 1 0 1 2 2 2 2 2 2 1 1 0 1 1 2 2 1 2 3 4 3 5
2 3 2 0 1 2 1 3 5 7 6 9 8 5 1 3 4 9 11 14 15 13 14 15 14 14 14 13 13 14 13 13 14 17 20 19 18 18 17 18 19 19 19 20 20 20 18 17 18 17 16 16 14 13 11 10 10 10 10 10 10 10 9 8 8 8 7 6 6 6 5 4 4 3 3 2 1 2 2 2 2 2 2 1 1 1 1 1 1 2 2 2 2 3 3 3 4
4 4 3 1 1 1 1 1 5 9 6 7 8 7 7 2 5 8 10 13 14 13 13 14 14 14 13 13 13 13 13 13 14 18 21 20 19 18 18 18 19 19 18 19 20 20 19 18 19 19 18 17 15 13 11 10 10 10 11 11 11 11 10 9 9 9 8 7 7 6 5 5 4 4 4 4 3 3 2 2 2 2 2 1 1 1 0 0 1 2 3 2 2 2 2 2 3
5 3 2 2 1 2 1 2 3 9 6 6 8 8 10 7 6 8 10 12 13 13 12 12 13 14 13 13 12 12 13 13 15 19 20 20 19 19 18 18 19 19 18 19 20 20 21 20 20 20 20 19 16 13 12 11 11 10 10 10 10 11 11 11 10 10 9 9 8 7 6 5 4 4 4 4 4 3 3 3 3 3 3 2 1 0 0 0 1 3 3 2 2 2 2 2 3
4 3 3 2 0 1 0 2 1 6 6 6 9 9 9 7 7 9 10 11 12 13 13 13 14 15 14 14 14 14 14 12 14 18 19 20 19 19 18 18 18 18 18 19 20 21 22 22 22 22 21 21 18 16 14 13 12 12 11 11 10 10 11 12 11 11 10 9 10 9 7 6 5 4 4 5 4 4 4 4 4 4 3 3 2 1 2 2 1 2 3 2 2 1 1 2 2
1 1 1 0 1 1 1 3 2 5 5 3 6 8 10 9 7 9 11 12 13 14 15 15 16 15 14 15 16 15 12 11 13 16 19 20 19 20 19 18 19 19 19 20 21 21 22 22 22 23 23 22 21 19 17 15 13 13 12 11 10 9 11 12 11 11 11 10 11 10 9 8 6 5 5 5 5 5 5 5 5 4 4 3 2 2 3 2 1 1 2 2 2 2 2 1 0
3 2 2 1 1 1 1 3 3 4 5 2 3 6 9 9 8 9 13 14 14 15 16 16 16 15 14 15 15 14 13 13 14 15 18 20 20 21 20 18 20 20 20 21 22 21 21 22 22 23 24 24 23 22 20 18 15 15 13 12 11 9 11 12 11 12 12 11 11 11 10 9 8 7 6 6 6 6 6 5 4 4 3 3 2 2 3 3 2 1 1 2 2 2 2 2 3
3 3 4 2 1 1 1 3 4 3 4 2 1 5 7 6 6 8 13 14 12 14 16 14 14 16 15 14 14 14 15 15 15 16 18 20 21 21 21 20 20 20 20 21 21 21 21 21 23 25 26 25 24 24 23 21 19 17 15 14 13 11 12 14 13 13 12 12 12 12 12 10 9 9 8 7 7 6 6 5 4 3 3 3 3 3 3 3 3 2 1 1 1 1 1 2 4
3 4 5 3 2 3 1 2 2 3 5 2 1 4 3 3 5 7 8 12 12 12 14 13 12 13 13 13 14 15 16 15 15 16 17 20 22 22 22 21 21 21 21 21 21 21 20 21 24 26 26 26 25 25 24 23 21 18 14 13 13 12 12 13 13 12 13 13 13 12 12 11 10 9 8 8 8 7 6 5 4 3 3 3 3 3 3 3 3 2 1 1 1 1 1 1 2
3 5 7 7 4 4 2 1 3 3 3 2 3 4 1 1 2 4 3 8 11 11 13 14 13 13 13 14 14 15 15 15 15 16 17 20 22 22 22 22 22 22 22 22 22 22 22 23 25 27 26 26 26 26 25 24 23 19 15 14 13 13 12 12 14 14 13 14 12 11 12 10 9 9 8 9 8 8 7 6 5 3 3 4 3 3 4 4 3 2 2 2 1 0 1 1 0
4 4 6 8 6 5 4 2 3 3 1 1 3 4 1 2 4 6 4 5 8 9 12 13 12 12 14 14 14 14 15 15 15 16 17 19 22 23 22 23 24 23 22 22 22 23 23 25 27 28 27 26 26 26 26 25 24 23 20 18 15 14 12 13 16 16 15 16 13 11 11 10 9 8 8 9 8 8 8 7 5 4 4 4 4 4 3 3 3 3 3 3 2 2 0 1 1
3 2 4 8 9 8 7 5 3 2 2 1 3 3 2 1 7 10 6 2 3 5 9 11 11 12 13 14 14 15 16 15 14 15 17 19 22 23 23 25 25 24 23 22 22 23 24 27 29 29 28 28 27 26 26 26 27 25 24 20 17 16 13 13 18 18 17 17 15 13 12 11 9 7 7 8 8 9 8 8 6 5 5 5 5 4 4 3 3 3 3 3 3 2 2 1 1
3 2 2 5 7 8 7 5 3 1 2 3 4 3 2 1 6 10 8 5 5 5 7 9 11 13 14 14 15 15 15 16 15 15 16 19 22 24 24 25 26 26 24 23 24 23 25 28 30 30 30 29 29 28 27 27 28 27 26 23 20 18 16 15 18 19 18 18 16 14 13 13 11 8 8 8 8 9 9 9 8 6 6 6 6 5 4 4 4 4 4 3 3 2 2 2 1
2 4 3 2 2 2 3 3 2 2 3 4 5 7 4 2 6 9 9 8 9 9 9 8 10 13 14 14 14 14 13 13 14 15 16 19 23 24 25 24 26 26 24 24 25 24 25 27 29 31 31 30 29 29 29 28 28 27 27 25 23 21 19 18 18 18 19 19 17 16 15 15 13 11 10 9 9 9 10 10 9 7 6 6 6 5 5 4 4 4 4 3 3 2 2 2 1
4 6 4 2 2 1 1 1 1 2 4 3 4 7 4 1 5 8 8 8 10 9 8 9 9 10 13 13 12 14 13 11 11 13 16 19 22 23 24 24 25 25 23 24 24 23 24 26 29 31 31 31 30 30 30 29 28 28 28 28 26 24 22 20 19 19 20 20 19 17 16 16 15 14 13 11 10 10 10 11 10 9 8 7 6 6 5 4 3 3 3 3 3 2 2 2 2
6 5 5 3 2 1 2 2 2 4 4 1 2 5 3 2 3 7 8 9 11 9 9 11 12 8 7 11 12 13 13 12 12 12 13 16 18 20 23 24 24 24 23 23 24 24 24 25 28 30 31 32 32 31 30 29 29 29 29 29 27 26 25 23 22 21 21 22 21 19 18 17 16 15 15 13 12 11 12 12 11 11 10 9 7 6 6 5 4 3 3 4 3 2 2 3 3
7 6 6 5 4 4 5 4 3 4 2 2 3 5 6 5 5 7 9 10 11 10 9 10 11 11 8 6 11 13 13 13 14 13 13 13 14 18 21 22 23 23 24 25 25 24 24 25 29 30 31 33 33 31 31 31 30 30 30 30 29 28 27 26 25 24 23 23 23 21 19 18 18 17 16 14 13 13 13 13 13 13 12 10 9 7 6 6 5 4 4 4 3 3 3 3 3
9 8 7 6 5 6 7 4 2 4 3 2 1 2 4 6 5 8 9 10 11 10 10 10 10 10 10 8 4 9 12 14 14 13 14 14 15 19 22 22 23 24 25 26 26 25 25 25 29 31 33 34 34 33 32 32 32 32 31 30 30 30 29 27 27 25 24 25 24 23 21 19 18 18 16 14 13 13 14 14 14 14 13 12 10 9 8 7 6 5 5 5 4 4 4 4 4
8 7 7 6 4 5 5 5 5 5 4 4 1 2 4 7 5 7 7 8 10 10 11 11 12 11 10 10 9 4 5 9 12 14 15 15 18 22 23 22 23 25 26 27 26 26 25 26 30 33 33 33 34 34 33 33 33 33 32 31 31 31 30 29 28 27 26 26 26 25 23 21 19 18 16 14 13 14 15 15 15 15 14 13 11 10 9 8 8 7 7 6 5 5 5 4 4
4 3 6 6 4 2 2 2 2 3 4 4 2 2 4 7 6 7 8 9 11 12 14 14 15 14 12 11 12 11 8 6 6 11 15 17 20 23 23 23 24 25 26 27 26 27 27 27 32 36 35 36 36 36 35 35 34 33 33 32 32 31 31 30 29 29 28 27 26 26 25 24 21 19 17 15 14 15 15 15 15 15 15 14 13 12 10 9 9 8 9 8 7 6 5 4 4
4 5 6 3 0 0 1 2 2 0 5 4 2 4 6 5 5 7 9 10 13 14 15 16 16 15 14 12 12 11 10 10 9 8 10 15 19 22 24 25 25 26 27 27 27 29 32 31 32 34 34 34 35 36 36 36 35 34 34 33 32 32 32 31 30 30 28 27 27 26 25 25 24 22 19 16 15 15 16 16 16 16 16 15 14 13 12 10 10 9 9 10 9 8 6 5 4
3 5 5 4 2 1 0 3 3 5 7 3 3 6 5 2 2 6 10 12 14 15 14 15 15 15 14 13 13 13 13 11 10 10 9 12 17 22 25 24 23 25 27 28 29 30 33 33 32 33 32 32 34 36 35 35 35 35 34 34 34 33 33 31 30 30 29 28 28 26 25 25 25 23 20 18 16 16 16 16 16 16 16 16 15 14 13 12 11 10 10 10 11 11 10 8 7
2 1 2 2 2 3 2 2 5 8 7 4 4 6 4 3 2 6 10 12 13 13 13 13 15 16 14 13 14 14 14 13 11 10 8 9 14 19 21 22 22 24 24 25 27 29 30 30 30 31 32 34 36 35 32 34 36 34 33 35 35 35 33 32 31 30 30 29 28 27 26 25 25 25 23 20 17 17 17 16 15 15 16 16 16 15 15 13 12 12 11 10 11 13 13 11 10
1 1 1 1 1 2 2 1 2 5 5 5 5 4 3 4 4 6 8 11 12 12 12 12 14 14 13 13 14 14 14 13 12 12 10 5 11 17 21 22 21 22 23 24 26 27 27 28 28 28 29 31 32 30 29 32 33 31 32 35 35 35 35 33 32 31 31 30 30 29 27 26 25 26 24 22 19 18 18 17 16 15 15 16 16 16 16 15 14 13 12 11 11 13 14 12 11
2 1 2 2 2 1 2 1 2 1 4 5 6 5 4 3 5 6 8 9 10 11 11 10 11 13 13 13 14 13 14 14 14 14 13 10 4 5 14 21 23 22 22 22 23 25 25 25 26 26 26 26 27 26 26 28 29 28 30 34 35 35 35 34 32 32 31 31 30 30 29 27 26 26 26 25 22 20 19 19 17 17 16 16 15 16 16 16 16 15 15 13 13 14 14 13 12
6 4 3 2 2 1 4 4 1 1 0 2 4 5 4 3 5 7 9 8 9 10 11 9 10 12 13 13 14 14 14 15 15 15 14 15 16 14 8 3 11 17 20 22 21 22 23 23 22 23 24 24 26 25 24 26 27 28 30 32 31 32 34 34 32 31 31 31 31 31 30 28 27 27 27 26 25 23 22 20 20 19 18 17 17 16 16 17 17 17 17 15 14 15 15 14 14
Wind_Direction
145 150 159 159 152 166 174 211 226 156 268 277 283 302 103 114 144 136 122 137 126 113 116 129 135 122 110 100 109 92 51 67 42 69 106 106 133 141 140 139 138 130 128 127 129 131 128 126 125 125 126 128 128 128 128 124 120 116 110 108 106 103 103 104 103 102 100 99 97 97 97 96 93 93 93 94 96 94 90 88 87 87 87 87 85 83 79 80 84 89 92 94 96 94 95 100 109
158 155 158 155 158 207 167 227 262 73 299 307 129 27 95 119 154 124 130 138 121 126 125 122 114 84 87 98 114 103 57 38 62 94 92 124 130 137 145 142 138 131 128 128 130 132 130 128 128 128 127 128 128 129 128 123 119 114 109 108 107 105 105 104 102 100 98 97 96 95 96 95 93 92 91 90 90 87 83 83 83 84 83 83 81 80 79 78 84 88 89 92 93 92 96 101 106
159 152 155 159 170 226 183 235 257 27 298 315 54 58 89 93 111 114 127 129 121 128 122 116 96 72 99 108 100 84 76 72 114 113 113 137 136 142 147 141 136 131 127 128 131 131 131 132 131 128 128 129 128 130 127 123 118 112 112 112 109 106 104 103 101 98 95 95 93 91 92 93 94 92 89 87 87 85 83 85 86 84 82 85 83 81 84 86 91 95 95 95 92 91 93 98 101
156 152 150 176 199 207 235 211 318 263 268 303 11 75 57 65 111 113 123 128 131 134 128 123 95 33 66 104 86 75 98 113 123 122 131 147 144 144 146 141 138 132 127 129 130 128 128 131 132 129 129 130 129 130 125 120 117 113 114 112 108 107 105 103 101 98 96 94 92 91 91 89 85 83 84 86 87 88 87 85 85 85 87 91 89 84 86 90 92 92 95 97 96 94 92 94 99
153 152 136 303 247 288 277 244 183 236 268 341 299 73 50 92 128 120 129 136 136 136 133 128 104 79 66 79 58 91 110 122 134 134 137 146 143 142 145 143 139 134 131 130 129 128 128 130 131 132 133 133 130 127 120 117 117 115 113 111 110 110 107 103 100 98 95 94 93 92 90 85 80 80 87 91 91 91 90 86 83 86 89 88 86 84 82 79 81 85 88 92 98 102 101 98 98
151 155 114 343 23 349 272 293 253 259 299 309 281 46 66 126 140 129 135 136 128 122 120 112 119 119 87 66 53 93 120 131 144 144 141 145 146 146 145 143 139 135 132 131 130 130 129 129 132 134 133 131 126 120 116 116 115 113 112 113 114 113 110 104 101 96 94 93 92 91 86 83 85 91 96 94 93 92 90 90 90 90 87 82 82 84 83 77 79 85 86 87 92 98 104 103 100
152 166 182 15 101 266 288 311 286 290 311 263 285 54 96 151 148 133 141 140 129 121 108 118 126 116 97 95 84 85 109 134 145 147 145 145 146 148 146 141 137 135 133 130 129 129 129 127 131 132 129 124 117 115 115 115 115 115 116 117 114 112 110 106 103 98 95 92 90 88 86 86 92 101 97 91 91 91 91 93 94 90 85 82 81 83 80 75 76 82 84 84 87 89 95 101 103
151 146 111 309 146 318 295 306 306 310 345 50 317 284 126 149 154 142 147 148 142 136 127 137 133 104 98 124 107 89 100 127 138 141 142 143 144 146 144 140 134 132 130 126 123 125 124 123 128 128 124 117 114 118 119 119 120 121 120 116 113 110 110 108 104 99 95 91 89 85 86 88 90 90 87 89 91 92 93 93 93 87 81 81 78 75 72 70 71 75 77 80 87 89 91 101 109
154 355 130 312 336 339 300 316 320 303 297 349 310 267 147 147 156 148 145 137 135 134 131 149 148 108 115 111 103 105 109 122 131 136 141 143 144 145 142 141 137 136 133 127 124 123 123 126 130 128 125 120 122 127 125 126 125 124 121 116 113 110 109 108 105 100 96 92 89 88 87 86 82 78 77 82 86 86 85 85 86 83 78 77 77 72 69 71 74 77 79 82 88 94 98 105 112
155 357 219 312 344 337 327 341 326 327 21 190 255 197 153 153 153 146 139 132 132 128 125 124 106 118 126 110 99 113 122 127 133 136 143 145 145 145 144 144 142 143 142 138 133 132 134 137 137 134 130 128 130 131 130 129 127 125 120 116 112 108 106 105 104 101 98 95 91 91 91 89 86 85 84 85 86 85 82 82 81 82 79 76 77 73 70 73 77 81 83 86 92 97 101 106 112
158 88 240 299 347 345 340 336 335 11 50 159 135 130 145 148 138 135 132 132 129 122 128 112 106 122 120 105 93 114 127 134 138 140 144 147 147 147 145 144 145 145 146 145 140 139 142 143 142 139 135 134 134 134 134 130 126 123 117 116 111 108 106 103 103 100 98 95 92 91 94 96 97 97 93 89 88 88 87 88 86 84 82 78 76 71 69 72 76 79 82 86 93 98 103 108 111
11 98 292 332 347 335 329 321 335 32 113 99 109 117 127 135 131 133 132 131 132 128 135 126 129 132 115 106 110 126 135 140 142 143 146 148 148 147 145 144 145 145 146 147 143 142 144 143 142 140 138 136 136 136 135 129 125 121 118 115 111 111 109 105 102 100 97 94 91 89 91 95 98 96 91 88 87 88 89 91 90 85 81 75 73 71 70 72 75 77 78 84 92 98 102 103 104
15 33 340 349 332 309 318 312 327 29 100 72 106 125 124 127 126 135 130 128 134 133 133 141 143 132 109 113 127 138 142 143 144 146 147 148 149 147 145 145 145 146 148 148 145 145 145 142 141 141 141 138 137 139 136 130 125 122 120 115 113 113 109 108 104 100 97 92 90 87 88 89 91 92 89 88 84 85 88 89 87 84 81 76 72 73 74 74 76 78 78 80 85 90 93 95 98
336 2 336 328 327 304 305 312 333 11 87 84 109 121 118 98 112 133 129 128 125 115 123 137 139 119 114 126 135 150 147 146 147 148 148 147 148 147 145 146 147 149 149 149 148 147 146 142 140 142 144 141 141 141 134 130 126 123 121 118 115 113 109 109 107 101 97 92 90 89 89 88 87 88 88 87 83 82 85 85 86 85 84 80 76 73 75 78 82 86 86 83 82 84 90 96 99
271 319 319 311 323 313 280 336 350 13 95 114 124 118 110 78 106 125 120 124 112 107 121 134 142 119 145 157 157 159 152 149 149 149 149 147 147 147 145 146 148 151 151 151 149 149 148 143 142 146 146 145 144 138 133 130 127 124 124 122 116 114 112 110 108 103 100 96 94 93 92 90 88 87 88 87 87 87 86 87 89 90 87 83 80 73 71 79 86 88 88 87 86 88 92 95 95
248 298 312 310 319 350 35 1 353 23 94 119 129 121 114 94 94 104 80 109 122 131 126 142 180 219 165 163 150 151 150 149 150 149 148 146 145 144 144 146 148 151 152 153 151 151 152 147 147 149 148 146 142 138 138 133 128 128 126 123 118 115 114 111 110 106 103 99 97 97 94 94 91 89 89 89 91 93 93 92 91 92 89 86 83 75 67 74 82 83 83 84 86 88 90 90 91
227 271 285 297 296 345 17 5 3 27 96 128 140 143 132 123 96 90 109 120 129 135 101 107 101 128 152 142 138 145 148 148 150 151 148 147 146 145 147 149 150 152 155 155 154 155 154 152 150 148 149 149 143 141 142 136 130 130 126 123 121 118 115 112 111 108 104 99 98 99 97 96 94 92 90 90 92 94 94 93 92 92 90 87 86 79 73 75 78 79 81 80 78 79 80 82 82
215 228 254 276 277 18 25 358 351 354 135 145 152 156 144 138 131 131 136 125 128 124 100 94 90 104 129 130 136 144 147 149 152 153 152 152 152 152 153 155 156 157 157 157 158 159 158 156 154 147 149 151 148 147 145 140 136 134 129 126 126 124 120 115 115 111 105 101 100 100 98 96 94 93 91 92 93 93 93 91 92 92 90 88 87 84 83 86 82 79 81 80 78 79 80 82 84
221 227 256 258 268 346 337 326 323 309 130 145 158 158 152 146 142 158 155 140 136 127 115 110 108 115 126 133 140 146 149 152 156 158 157 158 158 158 157 159 161 161 161 161 162 164 163 161 157 149 150 154 151 149 148 143 138 136 132 130 131 128 123 120 120 114 106 102 102 100 99 98 97 97 95 95 95 94 93 93 94 94 92 90 89 84 83 87 84 81 82 82 83 86 88 92 99
218 222 255 241 295 313 295 315 319 299 138 149 161 157 157 154 146 176 161 150 152 146 141 136 131 134 136 141 146 150 153 156 160 162 161 161 162 161 159 161 165 166 167 164 164 167 167 164 159 154 156 158 154 152 151 147 142 138 134 135 133 129 124 122 120 113 108 105 104 104 102 101 100 98 97 97 97 97 93 93 94 94 94 93 92 82 74 76 77 82 83 82 82 80 83 88 93
203 210 256 252 343 310 297 323 328 248 154 153 157 155 158 159 159 177 160 155 170 171 165 152 146 146 146 150 153 155 157 160 164 165 164 164 163 163 160 161 164 167 168 166 166 169 169 165 162 161 162 163 160 156 154 151 149 144 140 138 134 130 128 125 118 114 111 109 108 108 106 104 101 99 99 97 97 98 97 94 93 94 96 96 96 89 81 78 79 84 81 78 76 73 76 79 79
221 226 263 272 287 295 303 323 324 130 145 150 158 160 151 156 167 178 170 166 177 173 170 154 149 151 153 156 157 159 161 162 167 168 167 168 167 165 161 161 163 167 169 171 170 170 171 169 167 165 167 167 164 163 158 155 153 149 147 144 137 133 133 129 122 121 116 115 114 112 110 105 102 101 99 97 96 99 99 97 94 95 96 98 99 94 93 90 86 84 76 72 67 67 70 65 63
243 245 260 264 271 277 290 307 220 154 158 160 164 158 143 161 173 180 182 135 114 152 154 152 150 152 154 157 160 162 164 166 169 170 171 171 170 168 165 165 168 170 172 175 173 171 172 174 173 169 169 170 170 167 162 160 157 153 153 152 146 139 137 132 126 126 122 119 117 117 114 107 103 102 100 97 98 100 101 98 97 97 94 94 96 93 94 91 86 81 72 68 56 56 58 52 50
235 257 267 267 271 269 276 284 220 185 178 163 156 153 158 175 172 176 185 84 120 142 143 147 147 152 155 159 165 166 166 168 171 172 173 174 174 171 169 170 170 172 174 175 174 174 176 178 175 171 173 175 174 172 167 165 162 158 160 158 154 149 142 136 133 131 126 122 120 120 115 109 105 103 103 101 100 104 105 102 101 100 92 87 89 87 88 86 82 75 66 58 40 35 40 44 46
223 253 269 273 278 274 279 274 205 183 171 150 151 159 169 174 154 170 178 128 135 140 138 144 146 154 160 163 166 167 168 170 172 173 175 177 177 174 173 173 172 175 177 177 177 177 178 177 175 174 177 177 176 176 174 171 167 164 164 163 162 158 149 143 141 137 131 128 124 121 115 109 106 105 106 103 104 109 109 108 104 98 90 85 82 79 85 81 70 63 54 45 31 26 30 31 36
207 243 266 277 284 286 290 265 198 175 161 157 159 165 167 160 142 167 171 146 141 141 143 146 153 160 164 167 169 170 172 173 174 174 176 178 179 179 179 177 176 179 180 180 180 180 179 176 175 178 180 180 177 178 178 177 173 170 170 170 167 163 157 151 147 141 136 133 128 123 114 109 107 105 106 102 104 108 107 107 103 95 89 92 86 77 84 76 65 54 44 37 26 23 26 23 24
215 253 274 274 282 291 293 250 187 165 162 169 163 161 165 163 181 184 164 156 149 147 151 152 159 166 167 170 171 173 176 176 175 175 176 178 181 183 182 181 182 182 182 183 184 183 179 175 175 179 182 183 180 180 183 181 179 177 176 175 173 171 164 158 153 147 143 139 134 126 115 111 108 105 106 105 103 103 101 99 95 93 87 93 93 81 79 76 71 55 43 36 26 26 22 16 17
293 283 290 275 278 289 298 186 166 155 160 175 153 142 160 167 208 200 159 159 158 154 157 159 165 171 171 172 172 176 178 177 177 178 181 182 184 185 183 184 183 183 185 186 186 183 178 175 176 180 182 185 184 183 186 184 183 182 180 179 180 177 169 165 162 155 153 151 142 131 119 114 112 108 107 104 101 94 89 88 84 89 87 91 99 86 80 78 76 56 43 33 25 26 20 10 11
285 286 295 288 296 16 76 128 160 160 155 168 152 140 182 192 201 170 154 159 162 160 160 165 172 174 174 174 175 179 180 180 182 185 186 185 184 183 183 183 181 182 186 188 186 183 178 174 177 180 183 187 186 185 188 186 184 184 182 183 185 180 175 175 172 166 163 162 152 139 128 121 116 113 110 104 101 87 60 51 50 66 89 104 121 107 86 71 64 46 29 24 20 19 16 9 9
269 267 286 294 303 68 83 123 158 156 151 169 181 180 184 196 194 153 156 162 163 166 166 171 177 177 178 178 179 181 182 184 186 189 188 184 183 181 181 180 180 180 182 187 188 183 177 175 177 181 185 187 187 187 190 189 186 187 186 186 187 183 182 181 181 178 172 167 163 152 136 126 121 117 116 108 97 67 21 359 351 350 193 162 154 138 98 56 45 30 14 13 13 12 8 1 3
273 255 242 290 297 91 87 145 163 150 160 179 203 256 82 177 184 161 161 166 166 171 173 176 180 180 181 181 183 184 186 189 190 190 187 183 181 181 182 180 180 181 179 183 187 183 178 177 178 180 185 187 188 190 191 192 191 190 189 190 188 186 186 186 186 188 183 177 172 164 151 141 136 123 111 102 76 44 14 358 350 313 225 191 184 167 110 58 24 13 7 7 8 7 357 351 352
343 242 209 207 275 88 96 155 177 160 164 187 209 251 40 85 170 160 165 173 169 173 176 180 183 183 184 183 186 188 188 192 192 191 188 186 184 184 185 183 183 185 183 183 184 182 181 181 180 179 183 185 187 190 191 193 194 195 196 194 193 191 190 191 192 193 194 192 188 187 176 166 167 148 121 97 55 29 1 351 346 302 235 199 207 185 106 40 19 5 359 8 9 1 350 350 348
152 242 224 158 241 258 108 147 183 160 149 185 216 266 30 34 154 158 164 177 175 173 176 180 183 185 187 186 189 191 190 191 192 192 190 187 187 187 186 186 187 187 187 187 187 186 184 186 186 182 183 186 187 188 190 193 196 200 203 202 200 198 196 197 198 200 203 205 204 200 192 189 193 187 181 188 6 350 343 340 328 298 247 209 219 221 339 354 14 8 359 7 12 356 345 352 353
164 212 213 73 249 269 146 145 173 171 162 188 210 244 287 58 142 164 168 179 179 177 179 181 184 185 187 188 190 192 191 190 191 192 191 189 188 188 187 188 188 188 188 190 193 193 188 189 191 189 187 188 188 189 189 194 200 205 210 213 211 208 205 203 204 206 209 211 210 204 199 206 212 211 221 233 266 300 320 320 297 271 236 209 222 261 291 312 3 19 17 3 360 351 338 347 358
171 185 195 168 195 240 266 107 158 174 183 192 196 225 243 195 146 171 179 183 184 183 182 184 186 185 186 188 191 191 190 191 192 191 190 189 188 188 188 189 188 189 190 190 192 195 192 191 194 195 195 194 192 192 190 193 201 208 214 218 218 216 213 209 209 211 212 213 212 208 206 215 226 228 234 241 253 271 286 289 266 239 223 226 253 281 283 349 19 33 32 12 355 338 322 345 358
150 144 162 135 157 205 272 351 171 179 185 196 198 221 238 219 174 181 184 184 191 191 186 189 193 192 191 191 193 192 192 193 192 190 190 189 189 188 188 188 189 190 190 188 189 193 194 193 195 198 201 199 195 192 191 194 198 204 210 213 216 217 216 215 214 213 215 216 213 212 213 219 229 235 238 240 242 249 251 249 243 230 227 240 271 347 146 154 43 41 37 29 6 332 307 334 343
120 108 110 82 323 200 133 351 199 191 201 209 210 226 243 230 192 188 185 183 193 195 192 194 198 201 199 196 195 194 196 194 188 188 190 191 190 188 187 186 188 189 190 188 187 191 195 195 196 197 201 202 199 193 190 192 194 197 202 206 210 213 215 216 215 215 217 217 215 215 220 225 231 240 241 235 234 235 232 230 233 232 234 245 256 240 195 195 106 54 37 29 21 4 330 318 317
189 171 154 119 232 244 34 2 343 204 216 222 208 232 250 242 214 190 182 186 195 197 193 194 197 200 203 200 196 195 194 190 186 186 189 191 191 189 187 186 187 188 189 190 191 191 193 195 197 198 200 203 204 201 195 191 192 195 196 200 204 207 213 215 215 215 215 217 218 218 225 232 238 245 240 232 230 230 225 224 231 234 238 246 248 236 210 207 212 46 31 22 19 16 8 340 310
213 210 233 209 198 274 52 18 359 195 217 269 195 231 251 247 229 198 191 195 200 199 197 197 193 194 199 199 197 194 192 190 188 187 189 193 194 190 189 188 189 191 191 193 194 192 191 193 195 199 202 204 205 207 205 199 196 196 196 201 204 207 214 215 215 217 216 219 222 225 231 238 246 247 240 233 231 228 224 224 234 239 242 249 254 245 227 225 245 315 9 18 15 7 24 68 93
207 208 228 204 151 250 163 64 38 169 223 303 196 246 259 255 243 215 207 207 205 203 204 203 195 194 197 196 197 195 193 192 191 191 191 193 193 191 190 189 190 192 193 194 195 192 191 193 196 201 205 205 206 210 211 208 206 205 206 213 216 217 220 219 219 221 220 222 228 233 238 244 251 247 239 236 233 233 230 227 238 245 252 260 257 252 245 244 253 266 311 21 359 6 63 88 92
203 218 233 228 193 237 238 33 11 207 226 258 254 263 260 247 250 234 215 210 210 206 205 207 200 197 196 194 198 198 197 196 193 193 193 192 193 192 191 189 190 192 193 194 194 193 194 196 200 204 206 207 209 212 211 210 210 207 205 212 217 216 216 216 215 219 222 224 229 237 243 250 252 243 239 240 238 240 238 235 243 247 251 256 254 255 255 252 247 239 209 176 342 7 66 98 110
210 215 227 241 232 226 230 353 321 257 203 189 236 252 189 131 265 269 224 208 213 207 204 209 202 195 195 197 200 198 198 199 196 195 194 192 193 193 192 190 191 193 195 196 195 196 198 199 202 205 206 208 210 212 211 209 208 204 197 199 203 204 203 205 206 208 214 219 223 233 243 251 246 238 241 243 242 244 243 241 245 245 241 240 245 254 255 251 242 228 208 174 177 293 46 50 325
226 199 211 230 228 222 222 230 271 261 134 132 238 262 251 101 31 353 321 230 219 212 211 214 207 200 199 201 202 198 198 198 197 197 195 194 193 193 192 191 194 196 196 196 196 198 199 200 205 205 206 208 209 210 210 208 206 205 204 201 201 202 202 206 210 208 212 217 221 232 243 246 237 231 237 241 241 242 243 242 246 243 232 227 233 246 249 245 230 217 207 185 189 209 167 42 342
218 145 183 213 216 217 216 217 238 272 330 249 212 251 269 88 24 6 349 285 240 234 235 231 226 221 213 208 204 201 199 196 196 197 196 196 195 194 194 193 196 199 196 193 194 196 198 203 207 207 207 209 209 209 209 208 207 206 207 206 206 209 208 213 217 215 216 220 224 233 241 240 232 222 229 237 237 238 239 239 243 242 226 221 226 237 242 231 217 212 207 196 201 212 216 254 338
220 150 172 207 217 217 211 218 227 256 291 244 184 199 232 74 15 10 20 21 6 334 294 262 246 240 232 225 215 207 203 198 196 197 197 198 197 197 196 194 197 199 196 192 194 195 198 204 208 208 208 210 210 211 210 210 210 209 208 207 209 212 213 217 219 219 219 222 226 231 237 239 234 228 228 232 232 236 236 233 239 240 225 222 227 234 236 226 215 210 209 202 202 216 234 248 286
184 137 131 135 167 191 197 211 197 154 248 241 177 190 212 63 28 11 19 17 2 345 326 297 263 244 236 235 227 218 211 203 200 199 199 200 200 199 197 196 197 199 196 193 194 195 196 200 205 207 208 209 210 211 211 210 211 210 210 210 211 214 216 219 219 219 221 224 227 231 236 238 237 237 235 234 232 234 233 230 236 236 226 223 228 233 231 227 221 212 210 207 207 221 237 250 269
131 142 160 144 109 108 132 140 155 183 220 240 188 191 216 53 40 21 15 3 350 337 335 334 310 258 229 223 222 221 217 206 200 202 203 203 203 201 199 198 197 196 195 193 192 194 194 196 201 205 208 209 210 211 211 210 210 211 212 213 215 216 218 218 217 218 221 224 227 230 235 237 238 240 240 240 238 237 234 230 231 232 227 223 226 233 230 224 222 216 216 218 223 242 247 252 263
151 168 185 187 172 174 181 148 181 207 202 253 132 130 96 61 45 21 9 1 356 349 344 343 339 320 250 217 209 210 210 201 194 198 203 203 203 202 200 199 196 193 193 193 192 193 192 193 198 202 205 208 209 210 210 210 209 211 214 216 217 218 220 219 218 218 220 222 224 228 234 236 237 240 240 240 239 239 236 230 228 228 226 223 223 228 229 224 223 222 226 236 251 272 277 276 272
183 181 177 180 173 176 197 188 195 207 165 73 132 117 81 78 63 23 11 8 3 358 352 346 346 347 334 262 216 204 200 198 195 194 194 195 200 201 200 198 192 190 192 192 194 193 191 193 197 200 204 208 209 209 210 210 210 212 215 217 218 219 221 222 221 220 221 222 223 226 231 233 235 238 241 241 241 240 236 230 227 226 226 225 222 223 229 228 226 230 236 244 261 281 297 300 283
195 189 186 189 174 175 188 177 177 201 154 98 178 162 119 116 73 28 22 15 6 4 2 359 357 355 356 347 270 214 204 201 198 194 192 193 195 200 203 199 192 192 195 194 194 192 190 191 196 200 205 208 208 209 210 210 212 214 216 217 218 219 220 222 223 222 221 223 224 226 230 232 234 239 243 245 246 242 237 233 230 228 227 227 224 224 229 232 232 236 241 243 257 274 296 306 291
188 192 191 198 201 189 183 177 179 178 139 109 164 190 146 138 89 41 36 22 14 14 11 12 14 9 7 14 14 352 239 217 206 200 198 196 194 197 201 199 195 195 197 196 194 191 189 190 195 201 204 206 207 209 210 211 213 215 217 218 219 219 219 221 223 223 223 224 225 227 231 233 236 241 245 249 248 243 239 236 233 231 230 228 228 227 229 236 237 239 244 243 250 267 292 308 291
161 184 193 200 220 209 148 172 177 161 134 114 128 101 96 121 106 61 41 27 21 20 18 20 18 13 15 22 20 9 350 319 258 218 206 200 195 195 198 198 197 195 195 196 194 191 190 191 197 202 205 207 208 209 211 213 214 215 216 218 218 219 219 220 223 225 226 227 227 229 232 235 238 242 247 251 250 244 240 239 236 235 234 232 230 229 231 237 238 241 245 243 246 258 279 299 289
152 171 189 174 317 288 140 137 45 207 173 143 129 119 107 138 123 50 30 26 23 21 23 22 16 14 20 22 15 5 356 345 323 281 233 208 196 196 201 200 198 196 194 194 193 192 194 195 197 200 203 205 206 209 211 212 213 214 216 218 218 219 220 220 223 225 225 227 229 231 234 237 239 242 247 252 251 245 242 241 240 239 238 235 230 228 231 236 239 245 246 242 241 248 260 273 277
168 173 162 109 62 318 218 158 154 191 186 143 108 125 115 167 155 33 22 22 20 19 21 21 18 17 20 19 12 5 357 347 335 320 277 228 204 200 204 203 200 198 196 195 194 195 198 198 197 198 199 201 205 207 209 210 212 213 214 217 218 220 221 221 222 225 226 227 231 233 234 235 238 240 244 250 251 247 244 243 243 242 241 237 232 230 232 235 240 246 249 246 243 244 252 260 264
37 133 117 110 184 188 186 182 178 187 180 127 114 122 82 43 3 5 17 20 16 17 18 18 20 19 17 15 10 7 2 357 351 340 306 244 214 204 205 206 203 200 198 198 196 196 198 199 198 198 199 202 206 206 205 208 211 211 213 217 219 220 221 221 223 226 228 229 231 233 234 235 237 238 241 246 250 247 244 244 243 243 244 241 237 233 233 235 238 244 249 249 246 245 248 253 259
60 119 83 9 278 190 182 199 191 193 176 140 147 157 100 51 343 345 28 26 14 19 18 17 22 19 17 15 9 8 7 5 1 354 345 285 218 206 206 208 205 201 198 198 197 197 200 199 199 200 201 203 205 203 202 206 208 208 211 216 218 220 222 223 225 227 229 230 232 233 234 235 236 237 239 243 246 245 243 243 244 243 243 244 242 238 235 235 237 240 244 243 245 248 248 250 253
32 96 68 31 338 266 154 80 11 238 180 156 165 161 109 51 342 7 45 33 17 22 19 18 24 19 19 17 11 10 9 9 10 6 8 13 10 212 213 213 210 205 198 196 198 200 201 202 200 200 199 200 201 201 201 204 204 205 210 215 217 219 222 223 225 228 229 231 232 234 235 235 236 238 238 240 242 244 243 243 245 245 246 248 248 244 240 239 239 240 242 243 245 248 247 247 250
39 52 36 358 334 203 184 176 121 19 154 165 170 149 105 32 356 26 44 34 23 22 18 21 23 18 19 16 11 12 10 10 13 14 17 23 26 28 18 256 219 211 198 192 196 197 198 201 201 201 203 203 202 202 202 204 205 206 210 214 214 217 220 221 222 225 228 230 233 235 235 234 236 237 238 238 240 242 243 243 245 247 249 252 254 252 246 243 243 243 244 244 246 249 248 249 252